Regional Weather Roundup
Issued by NWS

Home | Current Version | Previous Version | Graphics & Text | Print | Product List | Glossary On
Versions: 1 2 3 4 5 6 7 8 9 10 11 12 13 14 15 16 17 18 19 20 21 22 23 24 25 26 27 28 29 30 31 32 33 34 35 36 37 38 39 40 41 42 43 44 45 46 47 48 49 50
000
ASUS43 KIND 241000
RWRIN

WEATHER ROUNDUP FOR INDIANA
NATIONAL WEATHER SERVICE INDIANAPOLIS IN
600 AM EDT WED MAY 24 2017

NOTE: "FAIR" INDICATES FEW OR NO CLOUDS BELOW 12,000 FEET WITH NO
SIGNIFICANT WEATHER AND/OR OBSTRUCTIONS TO VISIBILITY.

* - STATION DOES NOT REPORT WEATHER SUCH AS PRECIPITATION OR FOG.

+ - STATION NOT QUALITY CONTROLLED BY THE NATIONAL WEATHER SERVICE.
    USE DATA WITH CAUTION...ESPECIALLY DEWPOINT AND RELATIVE
    HUMIDITY OBSERVATIONS.

INZ001>003-010>013-019-020-241100-
NORTHWEST INDIANA

CITY           SKY/WX    TMP DP  RH WIND       PRES   REMARKS
GARY /AIRPORT/ LGT RAIN  55  54  94 N8        29.60F
MICHIGAN CITY+ CLOUDY    54  54 100 NW5       29.58F
MONTICELLO +   CLOUDY    56  55  95 NW7       29.55S
RENSSELAER +   CLOUDY    55  54  94 N7        29.56F FOG

$$

LMZ046-743>745-241100-
SOUTHERN LAKE MICHIGAN

STATION/POSITION TIME  TEMP    WIND        PRES    WAVE
                       AIR SEA DIR/SP/G            HT
                 (UTC) (F)     (DEG/KT/KT) (MB)    (FT)
BURNS HARBOR     0940   51     360/ 14/ 17 1002.4F
MICHIGAN CITY    0930   53     310/ 13/ 14   N/A
5NW MICH CITY    0950   50 53  320/ 14/ 17   N/A     1

$$

INZ004-005-014>016-021>024-241100-
NORTH CENTRAL INDIANA

CITY           SKY/WX    TMP DP  RH WIND       PRES   REMARKS
GOSHEN         CLOUDY    56  51  84 NE5       29.55F
SOUTH BEND     CLOUDY    55  53  93 NE6       29.57F

$$

INZ006>009-017-018-025>027-241100-
NORTHEAST INDIANA

CITY           SKY/WX    TMP DP  RH WIND       PRES   REMARKS
ANGOLA *+      CLOUDY    57  52  82 NE6       29.57F
FORT WAYNE     MOCLDY    58  51  78 E7        29.56S
KENDALLVILLE + PTCLDY    56  52  84 E7        29.57S

$$

INZ028-029-035-036-043>045-051>053-241100-
WEST CENTRAL INDIANA

CITY           SKY/WX    TMP DP  RH WIND       PRES   REMARKS
GREENCASTLE +  CLOUDY    55  52  88 N5        29.54F
LAFAYETTE      CLOUDY    57  55  93 N7        29.54F FOG
TERRE HAUTE    CLOUDY    58  54  86 N8        29.55F

$$

INZ030>032-037>040-046>048-054>057-064-065-241100-
CENTRAL INDIANA

CITY           SKY/WX    TMP DP  RH WIND       PRES   REMARKS
CP ATTERBURY + MOCLDY    55  54  94 CALM      29.55S
INDIANAPOLIS   CLOUDY    58  55  90 NW6       29.54F
-EAGLE CREEK   MOCLDY    59  55  87 NW9       29.54F
KOKOMO +       MOCLDY    56  54  93 SW3       29.55R
SHELBYVILLE    LGT RAIN  61  54  77 NW6       29.54S

$$

INZ033-034-041-042-049-050-058-059-241100-
EAST CENTRAL INDIANA

CITY           SKY/WX    TMP DP  RH WIND       PRES   REMARKS
MUNCIE         CLOUDY    64  50  60 CALM      29.54S
RICHMOND +     CLOUDY    57  55  94 SE3       29.56F

$$

INZ060-061-067>069-081>083-085>088-241100-
SOUTHWEST INDIANA

CITY           SKY/WX    TMP DP  RH WIND       PRES   REMARKS
EVANSVILLE     LGT RAIN  61  57  87 VRB6      29.56S
HUNTINGBURG *+ CLOUDY    60  57  89 N6        29.54F

$$

INZ062-063-066-070>080-084-089>092-241100-
SOUTH CENTRAL AND SOUTHEAST INDIANA

CITY           SKY/WX    TMP DP  RH WIND       PRES   REMARKS
BLOOMINGTON    CLOUDY    59  54  83 VRB3      29.53F
MADISON *+     CLOUDY    59  57  94 CALM      29.56F
SEYMOUR +      CLOUDY    59  57  94 CALM      29.53F

$$




USA.gov is the U.S. government's official web portal to all federal, state and local government web resources and services.